Погода в Соалале

Мадагаскар     16°06′52″S   45°24′37″E
темп.,
°C
ветер,
м/с
пор.,
м/с
влажн.,
%
обл.,
%
осадки,
мм/ч
давл.,
гПа
погр.,
м
1 марта, пн
пн100:00+24в2295100 10.1 100740
03:00+24в3594100 11.4 1006111
06:00+24в359697 0.9 1007143
09:00+28всв478261 1.6 1009772
12:00+30св4675100 3.2 10081033
15:00+30ссв4569100 4.1 1007957
18:00+27ссв237999 0.0 1006131
21:00+26св238062 0.0 100985
2 марта, вт
вт200:00+27св238179 0.2 1008102
03:00+25св348876 5.4 100896
06:00+24всв5119157 1.6 1008476
09:00+28в597330 1.7 1010840
12:00+30всв46664 0.1 10091133
15:00+29ссв577428 0.6 1007711
18:00+26с358175 0.6 1007210
21:00+25ссв238085 1.1 100969
3 марта, ср
ср300:00+25вюв238888 0.4 100993
03:00+24вюв369293 3.4 1007178
06:00+24в489391 2.4 1008271
09:00+27всв478392 6.7 1010520
12:00+29св577794 6.0 1008813
15:00+29ссв467797 8.8 1006829
18:00+27ссв358548 0.8 1006174
21:00+26с238724 1.7 1008104
4 марта, чт
чт400:00+26ссз378894 6.7 1007220
03:00+25сз7109597 16.0 1006368
06:00+24зсз3494100 7.8 1007142
09:00+25св2391100 10.3 1008106
12:00+25с5993100 7.6 1007546
15:00+25сз61194100 32.3 1005661
18:00+25зсз71191100 14.1 1006719
21:00+25зсз3790100 15.4 1008259
5 марта, пт
пт500:00+25ссз2491100 0.5 1007130
03:00+25с3691100 1.4 1006197
06:00+25сз2592100 4.1 1007171
09:00+25сз3695100 10.5 1008339
12:00+26сз3691100 7.1 1007506
15:00+28сз6983100 9.7 10051030
18:00+26сз6118898 5.5 1006572
21:00+26сз7128799 10.1 1007738